[[[{"header":{"parameterUnit":"kt","parameterCategory":2,"dx":1,"dy":1,"la1":30.253999710083008,"la2":30.299108505249023,"lo1":-89.0895004272461,"lo2":-89.04439544677734,"nx":28,"ny":28,"refTime":"2022-09-20T15:00:00:Z","depth":0,"parameterNumber":1,"parameterNumberName":"U-component_of_WINDS"},"data":[1.394,1.4115,1.4143,1.4357,1.442,1.4571,1.4634,1.472,1.4796,1.4982,1.5095,1.5144,1.5233,1.5376,1.55,1.552,1.557,1.561,1.5625,1.5418,1.5391,1.5366,1.5324,1.5621,1.5621,1.5835,1.5837,1.5838,1.3782,1.3845,1.3967,1.4104,1.4209,1.4187,1.4295,1.4385,1.4522,1.4618,1.473,1.4898,1.5034,1.5112,1.5249,1.5333,1.5331,1.5368,1.5361,1.5375,1.5155,1.511,1.5367,1.5367,1.5367,1.5367,1.5367,1.5367,1.3503,1.3607,1.3706,1.3839,1.3916,1.4009,1.4114,1.4171,1.4292,1.4437,1.445,1.4607,1.471,1.4891,1.496,1.5084,1.5049,1.5099,1.5111,1.5123,1.513,1.4813,1.5109,1.5109,1.5108,1.5108,1.5107,0,1.3306,1.3322,1.3441,1.3569,1.3668,1.3771,1.387,1.3936,1.3984,1.4083,1.4228,1.4318,1.4495,1.4636,1.4772,1.4835,1.4823,1.4827,1.4861,1.4855,1.4831,1.4843,1.448,1.4818,1.4815,1.4814,1.4812,1.4811,1.3023,1.3143,1.3262,1.3341,1.3402,1.3532,1.3615,1.3648,1.3736,1.3864,1.3957,1.4099,1.4214,1.4445,1.4513,1.4647,1.4642,1.4768,1.4663,1.4652,1.4642,1.4634,1.4645,1.4787,1.479,1.4792,1.4794,0,1.2861,1.2908,1.3102,1.3209,1.3239,1.3364,1.3456,1.3563,1.3607,1.3762,1.38,1.387,1.4014,1.4062,1.4238,1.4258,1.4465,1.4459,1.4429,1.4429,1.4545,1.4532,1.4915,1.4966,1.4661,1.4664,1.4666,0,1.2638,1.2795,1.2854,1.2965,1.314,1.3168,1.3341,1.3396,1.3484,1.3606,1.36,1.3716,1.3759,1.3882,1.3913,1.4091,1.4125,1.4151,1.4157,1.4151,1.4147,1.4198,1.4183,1.4169,1.4167,1.4165,1.4164,0,1.2377,1.2594,1.2774,1.2831,1.2961,1.3046,1.3105,1.3204,1.3287,1.3402,1.3455,1.3589,1.3662,1.3766,1.3803,1.373,1.4024,1.3931,1.405,1.4049,1.4112,1.4107,1.4434,1.4161,1.4161,1.416,1.4159,0,1.2203,1.2316,1.2571,1.2678,1.2734,1.2855,1.2985,1.3099,1.3205,1.3231,1.3323,1.3325,1.3485,1.339,1.3612,1.3505,1.3577,1.3618,1.3627,1.3643,1.3534,1.3711,1.4019,1.4052,1.3659,1.3655,1.3651,0,1.1891,1.2161,1.2186,1.243,1.256,1.2542,1.2677,1.277,1.2817,1.2936,1.2988,1.3125,1.3064,1.3114,1.3218,1.3277,1.3416,1.326,1.3434,1.344,1.3403,1.3688,1.372,1.3946,1.3599,1.3604,1.3608,0,1.1655,1.181,1.1852,1.1917,1.2044,1.2155,1.231,1.2451,1.2528,1.2636,1.2766,1.2962,1.2923,1.3006,1.3022,1.3128,1.3323,1.3073,1.3076,1.3115,1.3577,1.3607,1.3645,1.3311,1.3317,1.3323,1.3567,0,1.1378,1.1519,1.1634,1.178,1.1873,1.2029,1.2076,1.2168,1.2172,1.2217,1.2412,1.2504,1.2651,1.2707,1.2714,1.2941,1.291,1.2868,1.2778,1.2965,1.3047,1.308,1.2652,1.265,1.2648,1.2646,0,0,1.1067,1.127,1.1293,1.1443,1.1523,1.1502,1.1664,1.174,1.1894,1.195,1.19,1.2189,1.2267,1.2499,1.2561,1.2621,1.2666,1.26,1.2876,1.2901,1.2925,1.3011,1.3045,1.2643,1.2642,1.2641,1.2641,0,1.0975,1.105,1.1209,1.1287,1.1404,1.1443,1.1482,1.1595,1.1632,1.1823,1.1805,1.1928,1.216,1.2244,1.2317,1.2573,1.2553,1.2615,1.2734,1.2854,1.2882,1.2907,1.2998,1.303,1.2636,1.2636,1.2636,0,1.0749,1.0831,1.0912,1.1092,1.1169,1.1306,1.1221,1.137,1.1473,1.1446,1.1636,1.1694,1.1812,1.2025,1.2124,1.2081,1.2447,1.2342,1.2356,1.2368,1.2487,1.252,1.255,1.2156,1.2154,1.2152,0,0,1.0663,1.0795,1.0893,1.1075,1.1125,1.1186,1.1264,1.1276,1.138,1.1422,1.1496,1.16,1.1734,1.1823,1.1952,1.218,1.2207,1.228,1.2303,1.2322,1.2343,1.2467,1.25,1.2145,1.2145,1.2144,0,0,1.0623,1.0743,1.0727,1.0945,1.1042,1.1153,1.1264,1.1249,1.137,1.1357,1.1388,1.1417,1.1618,1.1677,1.1575,1.1921,1.1831,1.1857,1.1875,1.1905,1.1927,1.1908,1.1504,0,0,0,0,0,1.0552,1.0727,1.0712,1.0755,1.0984,1.1161,1.119,1.1218,1.1152,1.1239,1.1299,1.1273,1.1628,1.1538,1.1583,1.1696,1.2052,1.2069,1.2084,1.2162,1.2192,1.2217,0,0,0,0,0,0,1.057,1.0623,1.0708,1.0825,1.0876,1.1155,1.105,1.1062,1.1143,1.1135,1.1262,1.1277,1.1306,1.1518,1.1557,1.1665,1.1491,1.2059,1.2073,1.2085,1.2172,1.2197,1.2218,0,0,0,0,0,1.0584,1.0626,1.0984,1.0823,1.0867,1.0945,1.1043,1.1053,1.1116,1.121,1.1224,1.113,1.1308,1.1343,1.1542,1.1646,1.1464,1.1479,1.2068,1.2079,1.2089,1.2184,0,0,0,0,0,0,1.0594,1.0637,1.0994,1.1009,1.0758,1.093,1.0958,1.1045,1.1187,1.1202,1.1078,1.107,1.1312,1.1338,1.1366,1.1638,1.1442,1.1457,1.1466,1.2076,1.2085,1.2093,0,0,0,0,0,0,1.0614,1.065,1.1002,1.0919,1.0924,1.0916,1.0941,1.1114,1.1189,1.1047,1.1044,1.1073,1.1272,1.1336,1.1357,1.1627,1.1425,1.1439,1.1449,1.1455,1.2083,1.209,0,0,0,0,0,0,1.063,1.066,1.0915,1.0919,1.0924,1.1092,1.107,1.1304,1.1114,1.1041,1.1098,1.1091,1.1271,1.1292,1.1351,1.1612,1.1623,1.1425,1.1435,1.1442,1.1446,0,0,0,0,0,0,0,1.0643,1.0432,1.0906,1.092,1.0924,1.1145,1.1149,1.1154,1.1113,1.1106,1.11,1.1094,1.1344,1.1359,1.1375,1.16,0,0,1.1424,1.1431,0,0,0,0,0,0,0,0,1.0419,1.0429,1.0907,1.091,1.0913,1.1146,1.1149,1.1153,1.1111,1.1106,1.1101,1.1096,1.1348,1.136,1.1373,0,0,0,0,0,0,0,0,0,0,0,0,0,0,0,1.0907,1.0909,0,1.1146,1.1149,1.1152,1.1111,1.1106,1.1102,1.1098,1.1351,1.1362,1.1372,0,0,0,0,0,0,0,0,0,0,0,0,0,0,0,0,0,0,0,0,0,0,0,0,0,0,0,0,0,0,0,0,0,0,0,0,0,0,0,0,0,0,0,0,0,0,0,0,0,0,0,0,0,0,0,0,0,0,0,0,0,0,0,0,0,0,0,0,0]}],[{"header":{"parameterUnit":"kt","parameterCategory":2,"dx":1,"dy":1,"la1":30.253999710083008,"la2":30.299108505249023,"lo1":-89.0895004272461,"lo2":-89.04439544677734,"nx":28,"ny":28,"refTime":"2022-09-20T15:00:00:Z","depth":0,"parameterNumber":2,"parameterNumberName":"V-component_of_WINDS"},"data":[0.8617,0.8639,0.86,0.8608,0.8575,0.8573,0.8561,0.854,0.8515,0.8508,0.8498,0.8463,0.8423,0.8401,0.8388,0.8373,0.8369,0.8403,0.8378,0.8261,0.8242,0.8224,0.8214,0.8403,0.8403,0.8504,0.8505,0.8506,0.8527,0.8494,0.8489,0.8456,0.845,0.8393,0.8364,0.8362,0.8363,0.8333,0.8322,0.8314,0.8303,0.8251,0.8234,0.8243,0.8215,0.824,0.8238,0.8232,0.8105,0.8096,0.8263,0.8263,0.8263,0.8263,0.8262,0.8262,0.8353,0.8369,0.8327,0.832,0.8294,0.8274,0.8282,0.8238,0.8233,0.8211,0.8169,0.817,0.8132,0.8095,0.8074,0.8073,0.8038,0.8055,0.8058,0.8062,0.8071,0.7923,0.8069,0.8069,0.8068,0.8068,0.8067,0,0.8214,0.8181,0.8173,0.8154,0.8147,0.8129,0.8107,0.8111,0.803,0.803,0.8025,0.8016,0.7999,0.799,0.7967,0.7942,0.7883,0.7875,0.7885,0.7904,0.7922,0.7908,0.77,0.7871,0.7869,0.7868,0.7867,0.7866,0.8033,0.8058,0.7997,0.7997,0.7975,0.7977,0.797,0.7897,0.7894,0.7856,0.7874,0.7865,0.7854,0.7854,0.7804,0.7792,0.7763,0.7832,0.7761,0.7777,0.776,0.7758,0.7758,0.7847,0.7849,0.7851,0.7853,0,0.7934,0.7872,0.7899,0.7837,0.7823,0.7853,0.78,0.7814,0.7771,0.7784,0.7783,0.7717,0.7714,0.7653,0.764,0.7608,0.7653,0.7627,0.7663,0.7653,0.7706,0.7701,0.7894,0.7913,0.7721,0.7723,0.7724,0,0.7754,0.7791,0.7696,0.7715,0.7752,0.7678,0.7717,0.7684,0.7652,0.7662,0.7586,0.7597,0.7518,0.752,0.7474,0.75,0.7499,0.7475,0.7462,0.748,0.7483,0.7476,0.7466,0.7436,0.7435,0.7434,0.7433,0,0.7603,0.7598,0.7628,0.7617,0.7557,0.7573,0.7549,0.7513,0.7508,0.7493,0.7488,0.7477,0.747,0.7461,0.7401,0.7355,0.7434,0.7358,0.7409,0.741,0.7429,0.7428,0.7615,0.7432,0.7432,0.7431,0.7431,0,0.7448,0.7433,0.7489,0.7435,0.7437,0.7459,0.744,0.7445,0.7413,0.7384,0.7372,0.7315,0.7336,0.7264,0.7291,0.7247,0.7245,0.7225,0.7227,0.7224,0.7145,0.7255,0.7442,0.7458,0.7222,0.722,0.7218,0,0.729,0.7331,0.7267,0.7322,0.7332,0.7244,0.7267,0.7242,0.7205,0.7208,0.7169,0.7175,0.7109,0.7102,0.7124,0.7083,0.714,0.7074,0.7078,0.7079,0.7085,0.7257,0.7298,0.7408,0.7195,0.7198,0.7199,0,0.716,0.7087,0.7102,0.7084,0.704,0.7049,0.7077,0.7065,0.707,0.7053,0.7072,0.7081,0.703,0.7022,0.6975,0.7001,0.71,0.6943,0.6941,0.6971,0.718,0.7219,0.7237,0.7062,0.7065,0.7067,0.7181,0,0.6933,0.6947,0.6985,0.6954,0.6953,0.6986,0.692,0.6927,0.688,0.6841,0.6872,0.6839,0.683,0.6837,0.6794,0.6874,0.6851,0.6798,0.6723,0.6838,0.6874,0.6889,0.6675,0.6672,0.667,0.6668,0,0,0.6795,0.6814,0.6745,0.6769,0.6762,0.6671,0.6712,0.6696,0.6668,0.6665,0.6623,0.6631,0.6608,0.6651,0.6682,0.6681,0.6688,0.6652,0.6785,0.6798,0.681,0.685,0.6866,0.6664,0.6664,0.6663,0.6662,0,0.6698,0.6674,0.6715,0.6695,0.6662,0.6619,0.663,0.6583,0.656,0.6591,0.6517,0.6528,0.6541,0.6522,0.6515,0.6645,0.6588,0.6648,0.6737,0.6765,0.6782,0.6796,0.6838,0.6855,0.6657,0.6657,0.6657,0,0.6556,0.652,0.6534,0.6517,0.6496,0.6511,0.6415,0.6437,0.6446,0.6349,0.6382,0.6356,0.6329,0.6381,0.6402,0.6364,0.6501,0.6449,0.6461,0.6462,0.6486,0.6506,0.6523,0.6294,0.6292,0.6292,0,0,0.6481,0.6494,0.6435,0.6491,0.6483,0.6421,0.6424,0.6377,0.6354,0.6345,0.6311,0.6291,0.6296,0.6302,0.6304,0.6371,0.6358,0.6407,0.6424,0.6438,0.6447,0.6475,0.6495,0.6288,0.6288,0.6287,0,0,0.6446,0.6377,0.6334,0.6392,0.6371,0.6317,0.6355,0.6301,0.6297,0.6286,0.6211,0.6203,0.6251,0.623,0.6185,0.6276,0.6203,0.6213,0.6288,0.6309,0.6326,0.6329,0.6084,0,0,0,0,0,0.6313,0.6385,0.6346,0.6347,0.6327,0.6338,0.6335,0.6274,0.6222,0.6253,0.6215,0.6156,0.6189,0.6147,0.615,0.62,0.6238,0.6247,0.6255,0.6368,0.639,0.6409,0,0,0,0,0,0,0.6312,0.6313,0.6344,0.6295,0.6289,0.6335,0.6234,0.6219,0.6217,0.6205,0.6165,0.6154,0.6104,0.6142,0.6145,0.6194,0.6083,0.6241,0.6249,0.6256,0.6375,0.6394,0.6409,0,0,0,0,0,0.6312,0.6312,0.6297,0.6293,0.6289,0.6224,0.623,0.6217,0.6215,0.6158,0.6145,0.6169,0.6107,0.6105,0.6144,0.6194,0.608,0.6082,0.6246,0.6252,0.6257,0.6384,0,0,0,0,0,0,0.6311,0.63,0.6295,0.6291,0.6261,0.622,0.6212,0.6216,0.6166,0.6155,0.6158,0.6149,0.611,0.6108,0.6107,0.6198,0.6078,0.608,0.608,0.6251,0.6255,0.6259,0,0,0,0,0,0,0.63,0.6298,0.6293,0.6256,0.6248,0.6217,0.621,0.6235,0.6167,0.617,0.6161,0.6155,0.6112,0.611,0.6109,0.6152,0.6077,0.6078,0.6079,0.608,0.6255,0.6258,0,0,0,0,0,0,0.6298,0.6296,0.6256,0.625,0.6243,0.6198,0.6239,0.6223,0.6134,0.6173,0.6125,0.612,0.6116,0.6114,0.6111,0.6155,0.6152,0.6077,0.6078,0.6078,0.6079,0,0,0,0,0,0,0,0.6296,0.6321,0.6316,0.6245,0.6239,0.6258,0.6257,0.6256,0.6133,0.6129,0.6126,0.6122,0.607,0.6071,0.6073,0.6157,0,0,0.6077,0.6077,0,0,0,0,0,0,0,0,0.632,0.6321,0.6316,0.6315,0.6314,0.6258,0.6257,0.6256,0.6133,0.6129,0.6126,0.6124,0.607,0.6071,0.6072,0,0,0,0,0,0,0,0,0,0,0,0,0,0,0,0.6315,0.6315,0,0.6258,0.6257,0.6256,0.6132,0.613,0.6127,0.6125,0.6071,0.6071,0.6072,0,0,0,0,0,0,0,0,0,0,0,0,0,0,0,0,0,0,0,0,0,0,0,0,0,0,0,0,0,0,0,0,0,0,0,0,0,0,0,0,0,0,0,0,0,0,0,0,0,0,0,0,0,0,0,0,0,0,0,0,0,0,0,0,0,0,0,0,0]}]]]